DW1121 Weather Reports


time (UTC)temp
C
wind
direction
speed
KPH
gust
KPH
rain 1hr
cm
rain 24hr
cm
rain mn
cm
humidity
%
barometer
mb
20260505112104 7 178 0.0 0.0 0.00 0.00 0.00 89 1015.2
20260505111605 7 132 0.0 0.0 0.00 0.00 0.00 89 1015.2
20260505111105 7 163 0.0 0.0 0.00 0.00 0.00 89 1015.2
20260505110104 7 180 0.0 0.0 0.00 0.00 0.00 89 1015.0
20260505102105 7 131 0.0 0.0 0.00 0.00 0.00 89 1015.2
20260505101606 7 108 0.0 0.0 0.00 0.00 0.00 89 1015.2
20260505101105 7 141 0.0 0.0 0.00 0.00 0.00 89 1015.2
20260505100606 7 133 0.0 0.0 0.00 0.00 0.00 89 1015.2
20260505095605 22 91 0.0 1.6 0.00 0.00 0.00 38 1015.1
20260504232603 22 194 0.0 1.6 0.00 0.00 0.00 37 1013.8
20260504232104 22 192 1.6 3.2 0.00 0.00 0.00 37 1013.8
20260504231104 23 206 0.0 1.6 0.00 0.00 0.00 36 1013.7
20260504230104 23 202 0.0 1.6 0.00 0.00 0.00 34 1013.8
20260504225604 23 215 1.6 1.6 0.00 0.00 0.00 33 1013.8
20260504225103 23 206 1.6 3.2 0.00 0.00 0.00 33 1013.7
20260504224603 23 225 1.6 3.2 0.00 0.00 0.00 32 1013.7
20260504224105 23 213 0.0 1.6 0.00 0.00 0.00 31 1013.7
20260504223103 23 217 3.2 4.8 0.00 0.00 0.00 30 1013.8
20260504222603 23 273 1.6 8.0 0.00 0.00 0.00 29 1013.8
20260504222104 23 192 1.6 3.2 0.00 0.00 0.00 28 1013.8
20260504221604 23 202 1.6 3.2 0.00 0.00 0.00 28 1013.8
20260504221103 24 253 4.8 8.0 0.00 0.00 0.00 29 1013.8
20260504220603 24 145 4.8 8.0 0.00 0.00 0.00 30 1013.8
20260504220105 24 216 1.6 8.0 0.00 0.00 0.00 28 1013.7
20260504215103 25 190 3.2 4.8 0.00 0.00 0.00 29 1013.5
20260504214603 25 232 1.6 4.8 0.00 0.00 0.00 29 1013.5
20260504214104 25 195 1.6 3.2 0.00 0.00 0.00 31 1013.5
20260504213603 25 331 3.2 3.2 0.00 0.00 0.00 31 1013.5
20260504213103 25 191 3.2 4.8 0.00 0.00 0.00 34 1013.5
20260504212604 25 188 6.4 9.7 0.00 0.00 0.00 32 1013.5
20260504211103 25 200 6.4 9.7 0.00 0.00 0.00 33 1013.6
20260504210104 25 203 1.6 3.2 0.00 0.00 0.00 32 1013.6
20260504205604 25 189 3.2 4.8 0.00 0.00 0.00 32 1013.6
20260504205104 25 218 3.2 4.8 0.00 0.00 0.00 32 1013.8
20260504204603 25 221 1.6 8.0 0.00 0.00 0.00 33 1013.8
20260504204104 26 201 1.6 8.0 0.00 0.00 0.00 32 1013.8
20260504203604 25 235 3.2 4.8 0.00 0.00 0.00 32 1013.7
20260504203103 25 192 0.0 3.2 0.00 0.00 0.00 31 1013.7
20260504202103 25 85 1.6 8.0 0.00 0.00 0.00 31 1013.9
20260504201603 25 202 8.0 12.9 0.00 0.00 0.00 30 1014.1
20260504201103 26 247 8.0 12.9 0.00 0.00 0.00 31 1014.1
20260504200603 26 358 4.8 12.9 0.00 0.00 0.00 32 1014.1
20260504200104 26 97 4.8 9.7 0.00 0.00 0.00 31 1014.3
20260504195603 26 213 4.8 8.0 0.00 0.00 0.00 31 1014.3
20260504195104 26 242 3.2 4.8 0.00 0.00 0.00 29 1014.3
20260504194603 25 175 3.2 8.0 0.00 0.00 0.00 32 1014.3
20260504194103 25 186 0.0 4.8 0.00 0.00 0.00 34 1014.3
20260504193103 25 146 4.8 8.0 0.00 0.00 0.00 35 1014.4
20260504192603 25 202 4.8 9.7 0.00 0.00 0.00 32 1014.6
20260504192104 26 153 3.2 4.8 0.00 0.00 0.00 31 1014.6
20260504191603 26 185 3.2 8.0 0.00 0.00 0.00 30 1014.7
20260504191104 26 214 6.4 11.3 0.00 0.00 0.00 31 1014.8
20260504190604 25 165 3.2 11.3 0.00 0.00 0.00 31 1014.8
20260504185603 26 70 6.4 9.7 0.00 0.00 0.00 30 1015.1
20260504185104 25 82 3.2 8.0 0.00 0.00 0.00 32 1015.2
20260504184605 26 140 3.2 4.8 0.00 0.00 0.00 33 1015.2
20260504184104 25 210 6.4 9.7 0.00 0.00 0.00 35 1015.2
20260504183603 26 183 3.2 8.0 0.00 0.00 0.00 34 1015.3
20260504183103 26 173 1.6 4.8 0.00 0.00 0.00 36 1015.3
20260504182605 25 177 0.0 0.0 0.00 0.00 0.00 35 1015.6
20260504181604 26 353 4.8 12.9 0.00 0.00 0.00 34 1015.7
20260504181103 26 3 3.2 3.2 0.00 0.00 0.00 33 1015.7
20260504180603 25 55 1.6 12.9 0.00 0.00 0.00 34 1015.7
20260504175603 25 195 1.6 8.0 0.00 0.00 0.00 35 1015.8
20260504174604 25 240 4.8 9.7 0.00 0.00 0.00 34 1015.9
20260504174104 25 237 4.8 9.7 0.00 0.00 0.00 35 1015.9
20260504173603 24 202 4.8 4.8 0.00 0.00 0.00 35 1015.9
20260504173103 24 229 3.2 4.8 0.00 0.00 0.00 35 1015.9
20260504172104 24 138 1.6 4.8 0.00 0.00 0.00 35 1016.1
20260504171603 24 298 3.2 4.8 0.00 0.00 0.00 34 1016.1
20260504171103 24 225 3.2 4.8 0.00 0.00 0.00 35 1016.3
20260504170604 25 225 3.2 4.8 0.00 0.00 0.00 34 1016.3
20260504151104 18 22 0.0 1.6 0.00 0.00 0.00 41 1018.2
20260504150603 18 226 3.2 4.8 0.00 0.00 0.00 41 1018.2
20260504150104 18 183 3.2 8.0 0.00 0.00 0.00 41 1018.4
20260504141103 13 94 0.0 0.0 0.00 0.00 0.00 62 1018.5
20260504140104 13 177 0.0 1.6 0.00 0.00 0.00 64 1018.6
20260504130604 7 173 0.0 0.0 0.00 0.00 0.00 85 1018.8
20260504130103 7 198 0.0 0.0 0.00 0.00 0.00 85 1018.7